Tappahannock, VA

11:17 PM EDT on September 19, 2017 (GMT -0400)
Tappahannock

Weather History for KXSA - October, 2012

Change the Weather History Date:

Sunday, October 28, 2012

  Actual Average (KOFP) Record (KOFP)
Temperature  
Mean Temperature 57 °F -  
Max Temperature 60 °F 66 °F 84 °F (2014)
Min Temperature 54 °F 42 °F 26 °F (1962)
Degree Days  
Heating Degree Days 8    
Growing Degree Days 7 (Base 50)    
Moisture  
Dew Point 53 °F    
Average Humidity 87    
Maximum Humidity 100    
Minimum Humidity 73    
Precipitation  
Precipitation 0.00 in - - ()
Sea Level Pressure  
Sea Level Pressure 29.65 in    
Wind  
Wind Speed 10 mph (North)    
Max Wind Speed 15 mph    
Max Gust Speed 25 mph    
Visibility 10 miles    
Events Rain    
Averages and records for this station are not official NWS values.
T = Trace of Precipitation, MM = Missing Value Source: NWS Daily Summary

Daily Weather History Graph

Daily Weather History Graph

Search for Another Location

Airport or City:

Trip Planner

Search our weather history database for the weather conditions in past years. The results will help you decide how hot, cold, wet, or windy it might be!

Date:

Astronomy

Oct. 28, 2012 Rise Set
Actual Time 7:29 AM EDT 6:12 PM EDT
Civil Twilight 7:02 AM EDT 6:39 PM EDT
Nautical Twilight 6:31 AM EDT 7:10 PM EDT
Astronomical Twilight 6:00 AM EDT 7:41 PM EDT
Moon 5:29 PM EDT (10/28) 6:20 AM EDT (10/28)
Length of Visible Light 11h 37m
Length of Day
10h 43m
Waxing Gibbous, 99% of the Moon is Illuminated
Oct 28
Waxing Gibbous
Oct 29
Full
Nov 6
Last Quarter
Nov 13
New
Nov 20
First Quarter

Hourly Weather History & Observations

Time (EDT) Temp. Dew Point Humidity Pressure Visibility Wind Dir Wind Speed Gust Speed Precip Events Conditions
12:15 AM 60.3 °F 54.7 °F 82% 29.80 in 10.0 mi North 8.1 mph - N/A   Overcast
12:35 AM 60.1 °F 54.5 °F 82% 29.79 in 10.0 mi NNE 10.4 mph 16.1 mph N/A   Overcast
12:55 AM 60.1 °F 54.1 °F 81% 29.79 in 10.0 mi NNE 6.9 mph - N/A   Overcast
1:15 AM 60.1 °F 54.1 °F 81% 29.78 in 10.0 mi North 6.9 mph - N/A   Overcast
1:35 AM 60.1 °F 54.1 °F 81% 29.78 in 10.0 mi North 8.1 mph 16.1 mph N/A   Overcast
1:55 AM 59.9 °F 53.2 °F 79% 29.76 in 10.0 mi North 12.7 mph 19.6 mph N/A   Light Drizzle
2:15 AM 59.9 °F 52.0 °F 75% 29.75 in 10.0 mi NNE 9.2 mph 16.1 mph N/A   Light Drizzle
2:35 AM 59.9 °F 51.8 °F 75% 29.76 in 10.0 mi NE 11.5 mph - N/A   Overcast
3:15 AM 59.0 °F 51.4 °F 76% 29.75 in 10.0 mi North 10.4 mph 16.1 mph N/A   Light Drizzle
3:35 AM 59.0 °F 51.4 °F 76% 29.74 in 10.0 mi North 8.1 mph - N/A   Overcast
3:55 AM 59.0 °F 52.0 °F 78% 29.73 in 10.0 mi North 8.1 mph - N/A   Mostly Cloudy
4:15 AM 58.5 °F 52.7 °F 81% 29.72 in 10.0 mi North 10.4 mph 17.3 mph N/A   Mostly Cloudy
4:35 AM 58.6 °F 53.2 °F 82% 29.72 in 10.0 mi North 10.4 mph 18.4 mph N/A   Overcast
4:55 AM 58.8 °F 54.0 °F 84% 29.73 in 10.0 mi North 11.5 mph - N/A   Overcast
5:15 AM 58.8 °F 54.0 °F 84% 29.72 in 10.0 mi North 5.8 mph 10.4 mph N/A   Overcast
5:35 AM 58.8 °F 54.3 °F 85% 29.71 in 10.0 mi North 11.5 mph 17.3 mph N/A   Overcast
5:55 AM 59.0 °F 54.3 °F 84% 29.71 in 10.0 mi North 12.7 mph 21.9 mph N/A   Overcast
6:15 AM 59.0 °F 54.5 °F 85% 29.71 in 10.0 mi North 9.2 mph 17.3 mph N/A   Overcast
6:35 AM 58.6 °F 54.0 °F 84% 29.70 in 10.0 mi NNE 12.7 mph 19.6 mph N/A   Overcast
6:55 AM 58.5 °F 53.6 °F 84% 29.71 in 10.0 mi North 12.7 mph 21.9 mph N/A   Mostly Cloudy
7:15 AM 58.5 °F 52.7 °F 81% 29.72 in 10.0 mi North 8.1 mph 20.7 mph N/A   Overcast
7:35 AM 58.3 °F 51.8 °F 79% 29.71 in 10.0 mi NNE 12.7 mph 20.7 mph N/A   Mostly Cloudy
7:55 AM 58.1 °F 51.3 °F 78% 29.71 in 10.0 mi North 11.5 mph 20.7 mph N/A   Scattered Clouds
8:15 AM 57.9 °F 50.0 °F 75% 29.72 in 10.0 mi North 12.7 mph 20.7 mph N/A   Scattered Clouds
8:35 AM 57.7 °F 49.3 °F 73% 29.71 in 10.0 mi North 6.9 mph 18.4 mph N/A   Scattered Clouds
8:55 AM 57.6 °F 49.8 °F 75% 29.72 in 10.0 mi North 10.4 mph 16.1 mph N/A   Scattered Clouds
9:15 AM 57.6 °F 50.0 °F 76% 29.72 in 10.0 mi North 10.4 mph - N/A   Mostly Cloudy
9:35 AM 57.6 °F 50.4 °F 77% 29.69 in 10.0 mi NNE 12.7 mph 19.6 mph N/A   Mostly Cloudy
9:55 AM 58.1 °F 50.5 °F 76% 29.70 in 10.0 mi North 12.7 mph 25.3 mph N/A   Mostly Cloudy
10:15 AM 58.1 °F 51.1 °F 77% 29.70 in 10.0 mi North 10.4 mph 19.6 mph N/A   Overcast
10:55 AM 58.3 °F 51.4 °F 78% 29.68 in 10.0 mi North 10.4 mph 18.4 mph N/A   Overcast
11:15 AM 58.3 °F 51.1 °F 77% 29.66 in 10.0 mi North 9.2 mph 19.6 mph N/A   Overcast
11:35 AM 58.5 °F 50.9 °F 76% 29.66 in 10.0 mi North 15.0 mph 24.2 mph N/A   Overcast
11:55 AM 58.5 °F 50.9 °F 76% 29.65 in 10.0 mi NNW 12.7 mph 21.9 mph N/A   Overcast
12:15 PM 58.3 °F 51.3 °F 77% 29.65 in 10.0 mi NNW 10.4 mph 21.9 mph N/A   Overcast
12:35 PM 58.1 °F 51.8 °F 80% 29.64 in 10.0 mi North 11.5 mph 24.2 mph N/A   Light Drizzle
1:15 PM 57.9 °F 52.9 °F 83% 29.62 in 10.0 mi North 8.1 mph 20.7 mph N/A Rain Light Rain
1:35 PM 58.1 °F 53.2 °F 84% 29.61 in 10.0 mi North 10.4 mph 19.6 mph N/A   Light Drizzle
1:55 PM 57.6 °F 53.6 °F 87% 29.59 in 10.0 mi North 11.5 mph 23.0 mph N/A Rain Light Rain
2:15 PM 57.2 °F 53.6 °F 88% 29.60 in 10.0 mi North 11.5 mph 20.7 mph N/A Rain Light Rain
2:35 PM 57.2 °F 53.8 °F 88% 29.60 in 10.0 mi North 12.7 mph 23.0 mph N/A   Light Drizzle
2:55 PM 57.2 °F 54.0 °F 89% 29.60 in - North 10.4 mph - N/A   Unknown
3:15 PM 56.8 °F 54.5 °F 92% 29.59 in 10.0 mi North 10.4 mph 19.6 mph N/A Rain Light Rain
3:35 PM 55.8 °F 55.4 °F 99% 29.59 in 5.0 mi North 8.1 mph 19.6 mph N/A Rain Rain
3:55 PM 55.4 °F 55.4 °F 100% 29.58 in 5.0 mi North 8.1 mph 17.3 mph N/A Rain Rain
4:15 PM 54.9 °F 54.9 °F 100% 29.58 in 5.0 mi NNW 11.5 mph 16.1 mph N/A Rain Light Rain
4:35 PM 54.7 °F 54.7 °F 100% 29.57 in 10.0 mi North 9.2 mph 17.3 mph N/A Rain Rain
4:55 PM 54.5 °F 54.5 °F 100% 29.57 in 10.0 mi NNW 10.4 mph - N/A Rain Rain
5:15 PM 54.5 °F 54.5 °F 100% 29.58 in 10.0 mi NNW 9.2 mph 16.1 mph N/A Rain Light Rain
5:35 PM 54.5 °F 54.5 °F 100% 29.58 in 10.0 mi NNW 12.7 mph 18.4 mph N/A   Drizzle
5:55 PM 54.5 °F 54.5 °F 100% 29.58 in 4.0 mi NW 10.4 mph 17.3 mph N/A Rain Light Rain
6:15 PM 54.1 °F 54.1 °F 100% 29.57 in 7.0 mi North 15.0 mph 20.7 mph N/A Rain Rain
6:35 PM 54.0 °F 54.0 °F 100% 29.57 in 10.0 mi NW 8.1 mph 18.4 mph N/A Rain Light Rain
6:55 PM 54.0 °F 54.0 °F 100% 29.57 in 10.0 mi NNW 10.4 mph - N/A Rain Light Rain
7:15 PM 54.0 °F 54.0 °F 100% 29.57 in 10.0 mi NNW 8.1 mph 18.4 mph N/A Rain Rain
7:35 PM 54.0 °F 54.0 °F 100% 29.57 in 10.0 mi NNW 10.4 mph 18.4 mph N/A Rain Light Rain
7:55 PM 54.0 °F 54.0 °F 100% 29.56 in 10.0 mi NNW 12.7 mph - N/A Rain Light Rain
8:15 PM 54.0 °F 54.0 °F 100% 29.55 in 10.0 mi North 11.5 mph 18.4 mph N/A Rain Light Rain
8:35 PM 54.1 °F 54.1 °F 100% 29.55 in 7.0 mi NNW 8.1 mph - N/A Rain Rain
8:55 PM 54.0 °F 54.0 °F 100% 29.55 in 10.0 mi North 9.2 mph 16.1 mph N/A Rain Rain
9:15 PM 54.0 °F 54.0 °F 100% 29.55 in 7.0 mi North 6.9 mph - N/A Rain Rain
9:35 PM 54.1 °F 54.1 °F 100% 29.55 in 10.0 mi North 8.1 mph - N/A Rain Rain
10:15 PM 54.5 °F 54.5 °F 100% 29.54 in 10.0 mi NNW 8.1 mph - N/A Rain Rain
10:55 PM 54.9 °F 54.9 °F 100% 29.52 in 10.0 mi NNW 9.2 mph - N/A Rain Light Rain
11:15 PM 54.9 °F 54.9 °F 100% 29.52 in 10.0 mi NNW 6.9 mph - N/A Rain Light Rain
11:35 PM 54.5 °F 54.5 °F 100% 29.51 in 10.0 mi NNW 9.2 mph - N/A Rain Light Rain
11:55 PM 54.5 °F 54.5 °F 100% 29.50 in 10.0 mi NNW 10.4 mph - N/A Rain Light Rain